Goshen, IN

12:53 AM EDT on July 28, 2017 (GMT -0400)
Goshen Municipal

Weather History for KGSH - April, 2014

Change the Weather History Date:

Sunday, April 6, 2014

  Actual Average Record
Temperature  
Mean Temperature 40 °F -  
Max Temperature 57 °F 55 °F 78 °F (1988)
Min Temperature 25 °F 35 °F 17 °F (1982)
Degree Days  
Heating Degree Days 25    
Moisture  
Dew Point 25 °F    
Average Humidity 55    
Maximum Humidity 88    
Minimum Humidity 28    
Precipitation  
Precipitation 0.00 in - - ()
Sea Level Pressure  
Sea Level Pressure 30.12 in    
Wind  
Wind Speed 3 mph (SE)    
Max Wind Speed 13 mph    
Max Gust Speed 20 mph    
Visibility 10 miles    
Events      
Averages and records for this station are not official NWS values.
T = Trace of Precipitation, MM = Missing Value Source: NWS Daily Summary

Daily Weather History Graph

Daily Weather History Graph

Search for Another Location

Airport or City:

Trip Planner

Search our weather history database for the weather conditions in past years. The results will help you decide how hot, cold, wet, or windy it might be!

Date:

Astronomy

Apr. 06, 2014 Rise Set
Actual Time 7:17 AM EDT 8:13 PM EDT
Civil Twilight 6:49 AM EDT 8:42 PM EDT
Nautical Twilight 6:16 AM EDT 9:15 PM EDT
Astronomical Twilight 5:41 AM EDT 9:50 PM EDT
Moon 12:15 PM EDT (4/6) 2:11 AM EDT (4/6)
Length of Visible Light 13h 52m
Length of Day
12h 56m
Waxing Crescent, 43% of the Moon is Illuminated
Apr 6
Waxing Crescent
Apr 7
First Quarter
Apr 15
Full
Apr 22
Last Quarter
Apr 29
New

Hourly Weather History & Observations

Time (EDT) Temp. Windchill Dew Point Humidity Pressure Visibility Wind Dir Wind Speed Gust Speed Precip Events Conditions
12:53 AM 30.0 °F - 23.0 °F 75% 30.21 in 10.0 mi Calm Calm - N/A   Clear
1:53 AM 30.0 °F - 23.0 °F 75% 30.19 in 9.0 mi Calm Calm - N/A   Clear
2:53 AM 28.0 °F - 23.0 °F 81% 30.19 in 10.0 mi Calm Calm - N/A   Clear
3:53 AM 28.9 °F - 23.0 °F 78% 30.18 in 10.0 mi Calm Calm - N/A   Clear
4:53 AM 27.0 °F - 21.0 °F 78% 30.18 in 10.0 mi Calm Calm - N/A   Clear
5:53 AM 27.0 °F - 21.9 °F 81% 30.18 in 10.0 mi Calm Calm - N/A   Clear
6:53 AM 25.0 °F 19.3 °F 21.9 °F 88% 30.19 in 10.0 mi SE 4.6 mph - N/A   Clear
7:53 AM 28.0 °F - 24.1 °F 85% 30.20 in 9.0 mi Calm Calm - N/A   Clear
9:53 AM 43.0 °F 39.5 °F 27.0 °F 53% 30.21 in 10.0 mi South 5.8 mph - N/A   Clear
10:53 AM 48.0 °F - 23.0 °F 37% 30.19 in 10.0 mi SSE 5.8 mph - N/A   Clear
11:53 AM 48.9 °F - 23.0 °F 36% 30.19 in 10.0 mi SE 8.1 mph - N/A   Clear
12:53 PM 51.1 °F - 24.1 °F 35% 30.16 in 10.0 mi South 8.1 mph - N/A   Clear
1:53 PM 52.0 °F - 21.9 °F 31% 30.13 in 10.0 mi Calm Calm - N/A   Clear
2:53 PM 55.0 °F - 21.9 °F 28% 30.10 in 10.0 mi Calm Calm - N/A   Clear
3:53 PM 54.0 °F - 24.1 °F 31% 30.04 in 10.0 mi North - - N/A   Clear
4:53 PM 55.9 °F - 24.1 °F 29% 30.03 in 10.0 mi ESE 8.1 mph - N/A   Clear
5:53 PM 55.0 °F - 25.0 °F 31% 30.04 in 10.0 mi SSE 12.7 mph 19.6 mph N/A   Clear
6:53 PM 54.0 °F - 26.1 °F 34% 30.03 in 10.0 mi SSE 9.2 mph - N/A   Clear
7:53 PM 52.0 °F - 28.9 °F 41% 30.02 in 10.0 mi SE 6.9 mph - N/A   Clear
8:53 PM 46.0 °F 43.1 °F 30.9 °F 56% 30.01 in 10.0 mi East 5.8 mph - N/A   Clear
9:53 PM 44.1 °F 41.5 °F 30.9 °F 60% 30.02 in 10.0 mi East 4.6 mph - N/A   Clear
10:53 PM 46.0 °F 43.1 °F 30.0 °F 54% 30.00 in 10.0 mi ESE 5.8 mph - N/A   Clear
11:53 PM 39.0 °F - 30.9 °F 73% 30.00 in 10.0 mi Calm Calm - N/A   Clear